AS259 Weather Reports


time (UTC)temp
C
wind
direction
speed
KPH
gust
KPH
rain 1hr
cm
rain 24hr
cm
rain mn
cm
humidity
%
barometer
mb
20260502130535 8 0.0 0.0 0.00 0.00 0.00 50 1022.7
20260502123521 7 0.0 0.0 0.00 0.00 0.00 55 1022.6
20260502122536 7 0.0 0.0 0.00 0.00 0.00 56 1022.4
20260502121540 7 0.0 0.0 0.00 0.00 0.00 60 1022.5
20260502120531 5 0.0 0.0 0.00 0.00 0.00 63 1022.5
20260502115521 4 0.0 0.0 0.00 0.00 0.00 67 1022.4
20260502114525 2 0.0 0.0 0.00 0.00 0.00 68 1022.3
20260502113517 2 0.0 0.0 0.00 0.00 0.00 66 1022.4
20260502112552 2 0.0 0.0 0.00 0.00 0.00 67 1022.2
20260502111609 2 0.0 0.0 0.00 0.00 0.00 67 1022.0
20260502110523 2 0.0 0.0 0.00 0.00 0.00 68 1022.0
20260502105520 2 0.0 0.0 0.00 0.00 0.00 67 1022.1
20260502104519 2 0.0 0.0 0.00 0.00 0.00 67 1022.2
20260502103532 2 0.0 0.0 0.00 0.00 0.00 68 1022.0
20260502102548 2 0.0 0.0 0.00 0.00 0.00 68 1021.9
20260502101529 3 0.0 0.0 0.00 0.00 0.00 66 1021.9
20260502100529 2 0.0 0.0 0.00 0.00 0.00 67 1021.9
20260502091526 3 0.0 0.0 0.00 0.00 0.00 64 1021.7
20260502090523 3 0.0 0.0 0.00 0.00 0.00 65 1021.7
20260502070523 5 0.0 0.0 0.00 0.00 0.00 58 1021.7
20260502065518 5 0.0 0.0 0.00 0.00 0.00 58 1021.7
20260502064530 5 0.0 0.0 0.00 0.00 0.00 57 1021.8
20260502063542 5 0.0 0.0 0.00 0.00 0.00 57 1021.9
20260502062521 6 0.0 0.0 0.00 0.00 0.00 54 1021.8
20260502061536 6 0.0 0.0 0.00 0.00 0.00 55 1021.7
20260502060530 6 0.0 0.0 0.00 0.00 0.00 52 1021.6
20260502055605 6 0.0 0.0 0.00 0.00 0.00 53 1021.5
20260502054520 6 0.0 0.0 0.00 0.00 0.00 54 1021.5
20260502053517 6 0.0 0.0 0.00 0.00 0.00 53 1021.5
20260502052532 6 0.0 0.0 0.00 0.00 0.00 53 1021.3
20260502051529 6 0.0 0.0 0.00 0.00 0.00 52 1021.3
20260502050524 7 0.0 0.0 0.00 0.00 0.00 51 1021.5
20260502045521 7 0.0 0.0 0.00 0.00 0.00 50 1021.4
20260502044526 7 0.0 0.0 0.00 0.00 0.00 50 1021.3
20260502043522 7 0.0 0.0 0.00 0.00 0.00 49 1021.1
20260502042518 7 0.0 0.0 0.00 0.00 0.00 48 1021.3
20260502041551 8 0.0 0.0 0.00 0.00 0.00 46 1021.1
20260502040529 8 0.0 0.0 0.00 0.00 0.00 44 1021.1
20260502035523 9 0.0 0.0 0.00 0.00 0.00 43 1021.1
20260502034601 10 0.0 0.0 0.00 0.00 0.00 41 1021.0
20260502033534 10 0.0 0.0 0.00 0.00 0.00 38 1021.1
20260502032529 10 0.0 0.0 0.00 0.00 0.00 37 1021.0
20260502031525 11 0.0 0.0 0.00 0.00 0.00 36 1021.0
20260502030518 11 0.0 0.0 0.00 0.00 0.00 35 1020.8
20260502025548 11 0.0 0.0 0.00 0.00 0.00 34 1020.8
20260502024537 11 0.0 0.0 0.00 0.00 0.00 34 1020.8
20260502023519 12 0.0 0.0 0.00 0.00 0.00 34 1020.5
20260502022532 12 0.0 0.0 0.00 0.00 0.00 34 1020.4
20260502021528 12 0.0 0.0 0.00 0.00 0.00 33 1020.3
20260502020544 12 0.0 0.0 0.00 0.00 0.00 32 1020.2
20260502015518 12 0.0 0.0 0.00 0.00 0.00 32 1020.0
20260502014531 13 0.0 0.0 0.00 0.00 0.00 31 1019.9
20260502013527 13 0.0 0.0 0.00 0.00 0.00 31 1019.8
20260502012522 13 0.0 0.0 0.00 0.00 0.00 30 1019.7
20260502011518 13 0.0 0.0 0.00 0.00 0.00 30 1019.5
20260502010607 14 0.0 0.0 0.00 0.00 0.00 29 1019.5
20260502005517 14 0.0 0.0 0.00 0.00 0.00 28 1019.4
20260502004519 15 0.0 0.0 0.00 0.00 0.00 27 1019.3
20260502003536 15 0.0 0.0 0.00 0.00 0.00 27 1019.3
20260502002529 15 0.0 0.0 0.00 0.00 0.00 26 1019.3
20260502001525 15 293 0.0 4.8 0.00 0.00 0.00 26 1019.2
20260502000521 16 338 0.0 4.8 0.00 0.00 0.00 25 1019.2
20260501235519 16 0.0 0.0 0.00 0.00 0.00 25 1019.2
20260501234531 16 0.0 0.0 0.00 0.00 0.00 25 1019.2
20260501233547 16 338 0.0 4.8 0.00 0.00 0.00 25 1019.1
20260501232522 17 338 0.0 4.8 0.00 0.00 0.00 25 1019.1
20260501231518 17 0.0 0.0 0.00 0.00 0.00 23 1019.0
20260501230544 17 338 0.0 4.8 0.00 0.00 0.00 24 1019.0
20260501225518 17 0.0 0.0 0.00 0.00 0.00 25 1019.0
20260501224523 17 270 1.6 9.7 0.00 0.00 0.00 24 1019.0
20260501223519 17 0.0 0.0 0.00 0.00 0.00 24 1019.0
20260501222534 17 290 3.2 35.4 0.00 0.00 0.00 25 1018.8
20260501221528 16 0.0 0.0 0.00 0.00 0.00 26 1018.9
20260501220523 17 0.0 0.0 0.00 0.00 0.00 25 1018.9
20260501215540 17 0.0 0.0 0.00 0.00 0.00 25 1018.9
20260501214519 17 315 0.0 4.8 0.00 0.00 0.00 25 1019.0
20260501213529 17 338 0.0 4.8 0.00 0.00 0.00 25 1018.8
20260501212548 17 312 1.6 9.7 0.00 0.00 0.00 24 1019.1
20260501211525 17 0.0 0.0 0.00 0.00 0.00 26 1019.1
20260501210516 17 293 0.0 4.8 0.00 0.00 0.00 27 1019.0
20260501205545 17 0.0 0.0 0.00 0.00 0.00 26 1019.1
20260501204537 17 273 0.0 4.8 0.00 0.00 0.00 27 1019.3
20260501203519 17 0.0 0.0 0.00 0.00 0.00 28 1019.2
20260501202533 17 0.0 0.0 0.00 0.00 0.00 29 1019.3
20260501201551 17 0.0 0.0 0.00 0.00 0.00 29 1019.4
20260501200525 17 293 0.0 4.8 0.00 0.00 0.00 30 1019.4
20260501195522 17 52 1.6 16.1 0.00 0.00 0.00 31 1019.4
20260501194536 17 315 0.0 4.8 0.00 0.00 0.00 33 1019.4
20260501193531 17 0.0 0.0 0.00 0.00 0.00 33 1019.5
20260501191552 16 329 3.2 12.9 0.00 0.00 0.00 33 1019.6
20260501190524 16 338 0.0 4.8 0.00 0.00 0.00 34 1019.7
20260501185524 16 315 1.6 17.7 0.00 0.00 0.00 34 1019.6
20260501184518 16 0.0 0.0 0.00 0.00 0.00 36 1019.4
20260501183549 16 293 1.6 45.1 0.00 0.00 0.00 36 1019.5
20260501182529 16 0.0 0.0 0.00 0.00 0.00 37 1019.5
20260501181544 16 293 0.0 4.8 0.00 0.00 0.00 37 1019.7
20260501180522 16 293 1.6 9.7 0.00 0.00 0.00 37 1019.6
20260501175516 16 0.0 0.0 0.00 0.00 0.00 37 1019.7
20260501174531 16 0.0 0.0 0.00 0.00 0.00 39 1019.8
20260501173527 15 297 3.2 45.1 0.00 0.00 0.00 41 1019.7
20260501172524 15 270 0.0 4.8 0.00 0.00 0.00 43 1019.9
20260501171518 15 0.0 0.0 0.00 0.00 0.00 41 1019.8
20260501170527 15 0.0 0.0 0.00 0.00 0.00 43 1019.9
20260501165537 15 280 0.0 8.0 0.00 0.00 0.00 42 1019.9
20260501164521 14 315 0.0 4.8 0.00 0.00 0.00 43 1019.9
20260501163534 14 0.0 0.0 0.00 0.00 0.00 45 1019.8
20260501162529 14 315 0.0 8.0 0.00 0.00 0.00 46 1019.7
20260501161525 13 315 0.0 8.0 0.00 0.00 0.00 47 1019.7
20260501160521 13 0.0 0.0 0.00 0.00 0.00 47 1019.6
20260501155517 13 308 0.0 4.8 0.00 0.00 0.00 47 1019.6
20260501154531 13 0.0 0.0 0.00 0.00 0.00 48 1019.7
20260501153525 13 293 1.6 22.5 0.00 0.00 0.00 47 1019.6
20260501152523 13 0.0 0.0 0.00 0.00 0.00 47 1019.5
20260501151518 13 0.0 0.0 0.00 0.00 0.00 47 1019.3
20260501150549 13 0.0 0.0 0.00 0.00 0.00 47 1019.4
20260501145519 13 0.0 0.0 0.00 0.00 0.00 45 1019.4
20260501144520 13 0.0 0.0 0.00 0.00 0.00 46 1019.4
20260501143536 12 0.0 0.0 0.00 0.00 0.00 48 1019.4
20260501142534 12 0.0 0.0 0.00 0.00 0.00 48 1019.4
20260501141529 12 0.0 0.0 0.00 0.00 0.00 48 1019.4